Temp
-7 -8 -8 -8 -9 -9 -8 -9 -9 -9 -9 -9 -9 -9 -9 -10 -12 -12 -13 -13 -13 -13 -14 -14 -14 -14 -15 -16 -17 -16 -17 -16 -17 -17 -16 -17 -18 -18 -18 -16 -15 -15 -14 -14 -15 -16 -15
-8 -8 -9 -9 -9 -8 -8 -9 -9 -8 -9 -8 -9 -9 -10 -11 -12 -13 -13 -14 -14 -14 -14 -15 -15 -16 -17 -17 -18 -18 -18 -20 -19 -18 -17 -17 -18 -18 -19 -17 -16 -15 -16 -15 -16 -16 -16
-8 -8 -8 -8 -8 -9 -9 -9 -8 -8 -9 -9 -9 -10 -10 -11 -12 -13 -14 -14 -15 -15 -15 -16 -17 -18 -18 -19 -19 -20 -20 -21 -21 -21 -19 -19 -18 -19 -19 -19 -17 -17 -17 -16 -15 -16 -16
-8 -8 -8 -8 -8 -9 -9 -8 -8 -8 -9 -9 -9 -10 -11 -11 -12 -13 -14 -15 -15 -15 -16 -18 -19 -19 -21 -22 -23 -24 -24 -24 -23 -23 -21 -21 -20 -20 -20 -19 -19 -19 -18 -16 -14 -16 -16
-7 -8 -8 -9 -9 -8 -8 -8 -8 -8 -9 -9 -10 -11 -11 -12 -13 -14 -15 -16 -16 -16 -18 -19 -20 -22 -24 -26 -28 -28 -28 -28 -26 -24 -23 -24 -22 -21 -20 -19 -19 -19 -18 -17 -16 -16 -16
-8 -8 -9 -9 -8 -8 -8 -8 -8 -8 -9 -10 -10 -11 -12 -13 -14 -15 -15 -16 -17 -18 -19 -20 -22 -25 -26 -28 -29 -29 -29 -29 -28 -27 -25 -25 -24 -23 -22 -20 -19 -19 -19 -17 -16 -16 -16
-8 -9 -9 -8 -8 -8 -8 -8 -9 -9 -10 -10 -11 -12 -14 -14 -15 -16 -16 -16 -17 -18 -20 -21 -24 -27 -27 -30 -30 -29 -29 -29 -29 -27 -26 -26 -24 -24 -22 -21 -19 -18 -19 -16 -15 -16 -16
-8 -8 -8 -8 -8 -8 -8 -9 -9 -10 -10 -11 -12 -13 -15 -15 -16 -16 -16 -17 -17 -19 -22 -24 -26 -29 -30 -30 -30 -30 -30 -29 -29 -27 -27 -26 -25 -22 -22 -20 -20 -20 -19 -18 -17 -18 -17
-8 -9 -9 -8 -8 -9 -9 -9 -9 -10 -11 -11 -13 -14 -15 -16 -16 -17 -17 -18 -19 -21 -23 -26 -28 -30 -30 -31 -30 -30 -30 -29 -29 -28 -27 -26 -25 -24 -22 -22 -20 -20 -19 -19 -18 -18 -18
-8 -9 -9 -9 -9 -9 -9 -10 -10 -11 -11 -12 -13 -15 -15 -16 -17 -17 -17 -18 -20 -21 -24 -25 -27 -30 -31 -31 -32 -31 -29 -29 -29 -28 -27 -26 -26 -24 -22 -21 -21 -20 -20 -20 -19 -20 -19
-9 -9 -9 -9 -9 -10 -10 -10 -11 -12 -12 -12 -14 -15 -16 -16 -17 -17 -18 -19 -21 -21 -24 -26 -29 -30 -30 -31 -32 -30 -29 -30 -28 -28 -28 -27 -26 -25 -24 -22 -20 -20 -19 -19 -20 -19 -20
-9 -9 -10 -10 -10 -10 -10 -11 -12 -12 -12 -13 -14 -15 -16 -17 -18 -18 -18 -20 -21 -22 -25 -27 -28 -28 -29 -31 -31 -30 -29 -29 -28 -28 -28 -27 -26 -25 -23 -22 -22 -20 -19 -20 -20 -20 -20
-9 -9 -9 -10 -10 -10 -11 -11 -12 -12 -13 -14 -15 -15 -16 -17 -18 -18 -19 -20 -21 -22 -25 -26 -27 -28 -30 -30 -30 -29 -28 -28 -28 -27 -27 -27 -26 -26 -24 -23 -22 -21 -20 -20 -20 -20 -20
-9 -9 -10 -10 -10 -10 -11 -12 -12 -13 -13 -14 -16 -16 -17 -17 -18 -19 -20 -20 -20 -24 -24 -25 -27 -28 -30 -29 -29 -29 -28 -28 -28 -28 -27 -27 -26 -26 -25 -23 -23 -22 -20 -20 -20 -20 -20
-10 -10 -10 -11 -11 -11 -11 -12 -13 -13 -14 -15 -16 -17 -17 -17 -19 -19 -19 -20 -22 -24 -26 -25 -26 -27 -28 -29 -29 -29 -27 -27 -28 -28 -27 -27 -27 -25 -25 -24 -23 -22 -22 -21 -21 -21 -19
-10 -10 -11 -11 -11 -12 -12 -12 -13 -14 -15 -16 -16 -17 -17 -18 -19 -19 -20 -21 -23 -23 -25 -26 -27 -28 -29 -29 -28 -28 -27 -27 -27 -27 -27 -26 -26 -26 -25 -25 -23 -23 -22 -22 -21 -21 -22
-11 -11 -11 -11 -11 -12 -12 -13 -13 -13 -15 -16 -17 -17 -18 -18 -19 -19 -20 -21 -23 -24 -25 -26 -27 -28 -29 -29 -29 -29 -28 -28 -28 -27 -27 -26 -26 -26 -25 -25 -25 -23 -23 -21 -21 -22 -22
-11 -11 -12 -12 -12 -12 -13 -13 -13 -14 -15 -16 -17 -17 -18 -18 -19 -20 -20 -21 -23 -24 -25 -27 -27 -28 -28 -29 -29 -29 -29 -29 -28 -27 -26 -26 -26 -26 -25 -25 -25 -24 -22 -21 -22 -22 -21
-11 -11 -12 -12 -13 -13 -13 -13 -14 -14 -15 -16 -17 -18 -18 -19 -19 -20 -21 -22 -23 -24 -24 -26 -27 -28 -29 -28 -28 -29 -29 -28 -28 -27 -26 -26 -26 -26 -26 -25 -25 -24 -23 -22 -22 -22 -21
-12 -12 -12 -12 -13 -13 -14 -14 -14 -15 -16 -17 -18 -18 -19 -19 -20 -21 -21 -21 -22 -24 -25 -26 -27 -28 -28 -28 -28 -28 -29 -28 -28 -27 -26 -26 -26 -26 -26 -25 -24 -23 -23 -22 -22 -23 -22
-12 -12 -12 -12 -13 -14 -14 -14 -15 -15 -16 -17 -18 -19 -20 -19 -20 -21 -21 -21 -22 -22 -24 -25 -26 -27 -28 -28 -28 -28 -28 -28 -28 -28 -27 -26 -26 -26 -25 -25 -24 -24 -24 -23 -23 -22 -22
-12 -12 -13 -13 -13 -14 -14 -14 -15 -16 -16 -17 -19 -19 -20 -20 -21 -21 -22 -22 -22 -24 -24 -25 -25 -26 -27 -28 -28 -27 -28 -28 -28 -28 -27 -26 -26 -25 -25 -25 -24 -24 -24 -23 -23 -23 -23
-12 -12 -13 -13 -14 -14 -14 -15 -15 -16 -17 -18 -18 -19 -20 -21 -21 -21 -22 -23 -23 -23 -25 -25 -25 -26 -27 -27 -28 -28 -28 -28 -28 -28 -28 -27 -26 -26 -25 -25 -24 -24 -24 -23 -23 -22 -22
-12 -13 -13 -13 -14 -14 -14 -15 -16 -17 -18 -19 -19 -19 -20 -21 -20 -22 -22 -23 -24 -24 -25 -25 -25 -26 -26 -26 -27 -28 -28 -28 -28 -28 -28 -28 -27 -26 -25 -25 -25 -24 -24 -24 -24 -24 -23
-13 -13 -13 -13 -14 -15 -15 -16 -16 -17 -18 -19 -19 -20 -20 -21 -20 -22 -22 -23 -24 -25 -25 -25 -26 -26 -26 -26 -27 -27 -28 -28 -28 -27 -27 -27 -27 -27 -26 -25 -25 -24 -24 -24 -24 -24 -23
-14 -14 -14 -14 -14 -15 -15 -16 -17 -17 -18 -19 -20 -20 -20 -21 -21 -22 -22 -23 -23 -24 -26 -26 -27 -26 -26 -26 -27 -27 -27 -28 -28 -28 -27 -27 -27 -27 -27 -26 -25 -25 -25 -24 -24 -24 -24
-14 -14 -14 -15 -15 -15 -16 -16 -17 -18 -19 -19 -20 -20 -20 -21 -22 -22 -22 -23 -23 -24 -25 -26 -26 -27 -27 -27 -27 -27 -27 -27 -28 -28 -28 -28 -27 -27 -27 -27 -26 -26 -26 -25 -25 -24 -24
-15 -15 -15 -15 -15 -15 -16 -17 -17 -18 -19 -19 -20 -20 -21 -21 -22 -23 -23 -24 -24 -25 -26 -26 -27 -26 -27 -27 -27 -27 -27 -27 -27 -28 -28 -28 -28 -27 -27 -27 -27 -26 -26 -26 -25 -25 -24
-15 -15 -15 -15 -15 -16 -17 -17 -18 -19 -19 -20 -20 -21 -21 -22 -23 -23 -24 -24 -25 -26 -26 -27 -27 -27 -27 -27 -27 -27 -28 -28 -28 -28 -28 -28 -28 -28 -28 -28 -27 -27 -27 -26 -26 -25 -25
Height
5792 5787 5782 5777 5774 5770 5764 5758 5752 5744 5735 5726 5715 5704 5693 5681 5669 5656 5642 5627 5613 5599 5588 5576 5563 5549 5535 5526 5518 5510 5509 5508 5512 5518 5522 5531 5539 5546 5544 5566 5581 5584 5602 5611 5622 5631 5639
5789 5784 5779 5776 5772 5765 5759 5753 5745 5738 5728 5718 5707 5695 5682 5669 5655 5641 5627 5612 5595 5580 5566 5552 5535 5519 5507 5498 5487 5483 5483 5485 5481 5484 5495 5505 5518 5529 5536 5547 5553 5576 5589 5599 5609 5617 5626
5787 5782 5778 5773 5767 5761 5755 5747 5740 5731 5722 5710 5699 5685 5671 5657 5643 5627 5612 5596 5578 5561 5544 5525 5508 5493 5481 5469 5460 5453 5451 5451 5456 5457 5465 5480 5495 5503 5518 5533 5548 5557 5572 5584 5594 5603 5614
5785 5780 5774 5769 5763 5756 5749 5742 5734 5725 5714 5704 5690 5675 5659 5644 5628 5612 5596 5580 5562 5545 5523 5503 5487 5471 5457 5446 5436 5430 5428 5427 5428 5435 5442 5454 5472 5484 5493 5524 5533 5543 5555 5564 5579 5590 5603
5782 5778 5772 5766 5760 5752 5745 5737 5727 5718 5708 5695 5680 5664 5646 5629 5615 5600 5583 5566 5545 5526 5506 5485 5469 5451 5444 5431 5423 5417 5413 5411 5411 5415 5424 5438 5452 5466 5482 5503 5516 5522 5533 5548 5564 5577 5589
5780 5775 5769 5762 5755 5748 5740 5730 5721 5712 5700 5686 5670 5651 5635 5617 5602 5587 5572 5554 5527 5506 5490 5472 5455 5446 5436 5424 5415 5408 5407 5405 5402 5405 5411 5418 5433 5447 5464 5480 5486 5508 5523 5541 5552 5569 5575
5777 5771 5766 5758 5751 5744 5735 5726 5717 5706 5692 5677 5659 5641 5623 5607 5591 5576 5561 5550 5536 5506 5478 5463 5447 5433 5422 5416 5407 5402 5399 5400 5397 5399 5405 5408 5419 5432 5454 5473 5497 5509 5521 5534 5550 5562 5566
5774 5768 5762 5755 5748 5739 5730 5720 5710 5698 5683 5667 5649 5630 5613 5595 5580 5563 5546 5526 5505 5488 5469 5451 5438 5427 5418 5409 5401 5395 5392 5393 5392 5393 5397 5401 5404 5430 5447 5466 5479 5491 5503 5521 5536 5548 5554
5771 5765 5759 5753 5744 5734 5725 5714 5702 5689 5673 5655 5640 5621 5607 5588 5570 5553 5535 5517 5495 5478 5462 5446 5429 5422 5415 5404 5396 5392 5388 5387 5386 5387 5390 5394 5406 5425 5436 5454 5470 5480 5492 5513 5527 5540 5548
5769 5764 5757 5749 5740 5730 5719 5708 5695 5679 5664 5649 5632 5615 5599 5584 5569 5550 5527 5510 5492 5473 5458 5446 5431 5418 5407 5402 5394 5386 5382 5383 5382 5381 5382 5389 5399 5408 5423 5441 5459 5472 5489 5504 5518 5527 5533
5768 5761 5753 5744 5734 5724 5713 5700 5685 5670 5656 5640 5624 5608 5588 5572 5561 5543 5525 5506 5489 5470 5456 5442 5428 5417 5408 5399 5390 5384 5377 5379 5378 5379 5379 5388 5394 5403 5412 5434 5454 5467 5485 5496 5507 5518 5522
5765 5758 5749 5739 5729 5718 5705 5692 5679 5665 5650 5634 5619 5603 5586 5566 5548 5534 5517 5500 5485 5470 5453 5439 5429 5416 5405 5396 5388 5381 5376 5378 5378 5378 5378 5382 5391 5398 5412 5428 5445 5466 5474 5485 5497 5504 5506
5761 5753 5744 5734 5724 5713 5700 5687 5675 5660 5644 5628 5612 5596 5580 5563 5553 5534 5516 5499 5484 5466 5456 5442 5425 5412 5403 5395 5387 5382 5379 5379 5379 5378 5377 5382 5391 5400 5413 5420 5434 5451 5463 5475 5484 5487 5496
5758 5748 5738 5729 5719 5707 5695 5683 5669 5654 5638 5623 5606 5591 5575 5558 5543 5528 5515 5500 5484 5469 5456 5447 5429 5416 5406 5397 5391 5384 5382 5383 5382 5380 5379 5382 5389 5395 5402 5414 5429 5443 5455 5462 5470 5478 5495
5753 5743 5733 5724 5714 5702 5691 5679 5665 5649 5632 5618 5601 5586 5571 5556 5540 5524 5510 5495 5480 5467 5452 5441 5434 5424 5413 5404 5394 5388 5386 5387 5385 5383 5382 5383 5388 5394 5403 5412 5420 5433 5442 5460 5469 5484 5499
5748 5738 5729 5720 5710 5698 5687 5674 5660 5644 5629 5612 5598 5584 5570 5552 5537 5526 5509 5494 5481 5470 5459 5445 5432 5422 5414 5405 5400 5393 5391 5391 5388 5387 5386 5389 5392 5395 5402 5409 5418 5430 5448 5458 5464 5473 5482
5743 5734 5725 5716 5705 5694 5682 5669 5655 5640 5624 5610 5594 5578 5563 5549 5539 5524 5512 5495 5482 5468 5459 5449 5439 5432 5423 5414 5406 5400 5397 5396 5393 5391 5389 5389 5392 5397 5402 5409 5417 5426 5440 5456 5461 5469 5478
5739 5730 5720 5710 5700 5690 5678 5664 5650 5635 5622 5607 5591 5575 5565 5551 5534 5518 5506 5496 5484 5474 5462 5454 5444 5435 5428 5421 5414 5407 5403 5400 5397 5395 5393 5393 5393 5397 5403 5408 5415 5422 5435 5447 5450 5462 5473
5733 5724 5715 5705 5695 5684 5671 5658 5644 5629 5614 5601 5588 5573 5556 5546 5538 5526 5509 5495 5483 5476 5466 5456 5448 5440 5431 5425 5420 5413 5409 5406 5403 5400 5398 5398 5396 5398 5403 5410 5414 5420 5426 5434 5446 5459 5466
5728 5719 5709 5699 5689 5678 5665 5652 5639 5624 5609 5595 5581 5569 5554 5541 5528 5520 5511 5499 5489 5476 5466 5456 5450 5444 5438 5432 5425 5419 5413 5409 5406 5403 5402 5400 5401 5400 5404 5408 5412 5419 5426 5434 5443 5452 5461
5723 5713 5703 5693 5683 5672 5658 5645 5633 5620 5604 5589 5576 5563 5547 5538 5530 5518 5507 5497 5487 5482 5471 5461 5452 5444 5437 5432 5428 5423 5418 5414 5409 5405 5405 5404 5403 5402 5405 5408 5413 5417 5424 5431 5438 5447 5453
5716 5707 5698 5688 5677 5666 5653 5640 5627 5615 5599 5585 5572 5560 5550 5534 5523 5513 5503 5493 5484 5474 5467 5461 5452 5443 5438 5433 5428 5423 5420 5416 5412 5409 5406 5406 5406 5406 5407 5407 5411 5415 5421 5428 5434 5443 5446
5711 5702 5692 5683 5671 5659 5647 5635 5621 5608 5594 5579 5569 5557 5543 5532 5523 5512 5501 5491 5483 5475 5465 5458 5452 5445 5438 5434 5429 5424 5419 5415 5412 5410 5408 5406 5407 5408 5408 5409 5410 5415 5418 5424 5430 5436 5441
5706 5696 5687 5677 5666 5654 5641 5629 5615 5601 5589 5574 5561 5551 5540 5529 5520 5509 5498 5488 5479 5471 5465 5457 5449 5444 5439 5432 5427 5422 5420 5415 5412 5410 5408 5406 5406 5408 5408 5409 5411 5413 5415 5420 5426 5429 5433
5700 5690 5681 5671 5660 5650 5636 5623 5610 5597 5585 5570 5556 5546 5536 5527 5517 5508 5498 5487 5475 5466 5461 5456 5449 5442 5436 5431 5427 5423 5419 5415 5411 5408 5406 5407 5406 5406 5407 5408 5411 5413 5415 5416 5418 5424 5428
5695 5686 5676 5665 5654 5643 5630 5618 5604 5592 5579 5567 5551 5542 5532 5521 5510 5501 5493 5482 5476 5468 5459 5453 5447 5441 5435 5431 5426 5420 5416 5413 5412 5409 5406 5405 5405 5406 5405 5407 5407 5409 5410 5411 5413 5417 5419
5689 5680 5669 5658 5647 5637 5625 5613 5599 5586 5573 5562 5548 5538 5528 5518 5507 5499 5488 5481 5471 5462 5456 5450 5446 5441 5434 5428 5424 5420 5415 5412 5409 5407 5406 5404 5403 5402 5402 5402 5403 5403 5405 5406 5408 5412 5410
5683 5674 5663 5652 5642 5631 5618 5606 5593 5581 5569 5559 5545 5534 5523 5515 5502 5493 5483 5475 5466 5458 5451 5446 5443 5438 5433 5427 5422 5417 5413 5409 5406 5404 5402 5402 5401 5399 5398 5398 5399 5398 5399 5401 5402 5403 5405
5677 5667 5657 5646 5635 5623 5611 5599 5588 5576 5564 5553 5542 5528 5519 5508 5497 5487 5478 5469 5461 5454 5447 5441 5437 5431 5426 5422 5417 5414 5410 5407 5403 5401 5398 5397 5396 5395 5395 5393 5392 5392 5391 5392 5394 5394 5395
Wind_Speed
23 21 22 25 27 29 33 37 40 45 50 56 60 63 67 70 69 71 70 71 71 73 74 74 78 81 81 70 65 67 67 68 63 72 83 86 85 86 78 77 77 71 67 62 55 51 47
24 24 24 27 29 33 37 40 45 49 54 56 64 70 74 73 73 73 74 73 73 73 73 79 80 72 67 65 65 62 62 58 66 70 75 85 85 88 83 78 85 75 63 66 62 55 51
25 26 27 29 31 35 40 45 50 53 60 64 70 74 75 80 79 80 78 77 75 76 80 80 72 68 65 62 58 56 55 55 59 71 74 77 81 89 87 77 78 76 69 66 62 61 55
28 26 27 30 34 39 45 50 53 58 62 65 71 77 78 81 83 83 80 75 76 81 82 74 68 64 58 54 50 47 43 43 51 65 76 77 74 88 90 81 78 71 72 67 53 62 59
28 28 30 32 37 44 48 50 54 59 62 67 74 78 79 81 84 83 78 76 80 84 78 70 63 58 49 43 37 35 33 27 33 48 65 66 65 80 87 85 85 79 74 72 68 61 60
27 28 31 36 42 46 49 52 56 59 65 72 78 79 80 80 82 79 78 78 84 83 76 67 58 46 41 34 32 29 20 20 19 27 41 59 61 69 86 88 91 88 75 72 69 60 66
28 30 34 39 43 47 51 56 58 62 67 75 80 82 78 79 78 76 77 77 78 79 74 58 51 45 38 34 33 29 23 18 15 27 29 46 62 65 71 81 82 81 82 74 69 62 59
29 33 36 41 45 48 52 58 62 68 72 77 81 83 76 76 75 77 80 83 86 82 67 58 48 40 38 37 32 26 17 15 14 17 26 36 60 62 69 78 84 84 83 82 76 65 69
31 34 39 44 47 50 55 60 61 69 74 79 79 79 78 75 75 78 81 83 85 76 64 55 46 39 38 42 30 20 16 16 15 8 26 24 48 65 70 70 64 85 83 76 76 74 66
34 38 41 45 51 56 56 60 64 69 74 81 81 77 78 73 73 75 80 83 78 74 61 58 47 43 40 29 36 27 11 13 12 12 22 31 29 73 66 69 75 65 81 74 72 73 72
35 38 41 46 51 54 57 60 64 69 75 80 80 79 78 78 73 75 78 80 76 72 61 60 45 41 31 31 32 19 17 11 10 12 17 29 27 59 71 68 68 72 52 59 70 62 74
37 38 41 46 51 53 57 61 65 71 77 82 81 80 80 73 73 75 78 77 77 70 61 57 47 38 34 35 28 20 16 5 5 7 9 26 27 39 72 63 70 52 31 44 56 60 69
39 43 45 49 53 54 58 63 68 72 77 80 79 79 79 77 70 71 76 77 74 70 62 61 51 40 36 36 28 20 13 4 9 7 3 24 23 24 70 75 70 60 49 39 49 61 64
45 46 49 51 53 56 58 65 69 72 77 79 77 78 78 75 71 71 74 75 75 64 62 57 50 40 36 35 28 25 13 5 11 17 2 28 27 24 36 72 72 71 61 34 49 48 52
45 50 49 52 55 57 60 67 69 72 76 78 75 75 76 76 69 70 74 74 72 64 59 61 49 43 37 32 30 23 7 7 11 16 3 18 26 30 29 51 74 70 65 47 24 34 51
50 50 52 53 55 59 63 68 70 73 75 75 76 74 76 73 65 66 70 72 63 60 56 55 49 48 47 43 33 24 12 9 11 17 10 11 27 30 29 28 55 76 67 56 52 53 47
49 52 52 55 56 59 66 70 75 76 75 73 75 77 74 72 62 64 67 67 62 58 54 52 50 41 42 43 37 29 16 12 13 15 15 4 11 36 29 29 29 51 58 55 50 55 48
51 52 53 56 59 62 68 72 77 80 78 75 75 73 69 68 63 63 66 66 60 53 51 43 45 39 37 39 35 31 22 17 17 14 15 9 1 31 30 29 33 49 67 53 54 50 39
54 53 54 58 60 64 70 75 79 82 83 77 73 69 71 67 58 55 62 62 59 52 48 46 41 38 34 33 31 30 28 24 21 13 10 14 7 17 33 20 32 43 68 62 56 51 47
57 53 56 60 63 67 72 77 82 85 83 82 74 68 68 66 59 57 58 61 60 51 46 41 39 34 30 23 24 24 29 25 21 16 10 11 13 16 25 31 26 32 36 53 48 44 52
58 53 57 61 63 67 71 78 83 85 87 82 72 67 67 64 55 57 57 60 57 55 46 41 37 34 34 30 15 14 19 23 25 26 14 8 8 9 25 25 26 26 27 34 48 45 45
59 56 58 61 65 70 74 80 85 86 84 80 70 69 64 62 57 58 57 57 59 52 50 42 39 37 32 28 28 17 15 16 22 26 18 10 4 4 6 14 27 25 26 33 42 47 44
59 56 58 63 65 70 76 82 85 85 80 77 72 69 64 60 56 57 56 55 56 54 48 45 39 35 32 27 22 23 26 18 16 19 20 11 5 3 3 6 16 28 33 34 40 46 47
58 56 58 62 66 70 76 83 86 83 76 72 73 70 62 55 54 57 55 53 52 50 47 43 40 37 33 31 27 24 22 22 16 15 16 16 7 7 7 8 10 11 25 31 32 39 47
57 58 60 65 68 72 77 83 85 82 73 69 71 65 61 54 56 56 55 51 50 46 44 41 37 36 34 32 27 21 19 20 21 16 14 14 12 6 9 11 11 19 18 20 29 44 43
59 60 61 64 69 72 77 83 83 79 72 68 67 63 60 58 60 58 54 50 47 45 41 38 35 34 32 30 29 26 22 18 16 18 16 12 10 10 9 14 17 14 16 24 24 27 29
61 61 63 67 71 73 79 84 82 75 71 66 62 62 61 61 61 58 52 48 48 45 42 38 34 30 31 30 28 26 23 20 16 12 10 11 13 13 11 15 18 20 18 15 22 25 29
59 60 65 68 71 75 79 84 78 74 70 66 63 65 66 66 61 56 51 50 46 43 42 40 35 32 29 29 29 29 26 21 19 16 14 12 9 14 17 18 19 21 23 20 21 23 26
58 60 65 67 70 75 79 83 76 69 68 66 64 67 70 64 61 55 53 48 45 42 40 40 37 36 35 32 32 30 28 26 22 18 18 17 16 12 16 22 23 22 23 25 27 26 29
Wind_Direction
348 344 342 342 339 341 344 341 341 340 338 338 337 334 331 329 328 328 328 326 323 320 316 312 307 302 299 293 285 275 271 268 253 239 234 234 227 225 218 217 222 227 226 228 224 223 223
349 345 343 342 342 347 345 344 343 342 341 337 335 332 331 330 330 331 330 328 324 320 316 316 312 309 302 296 288 280 271 256 253 245 231 232 230 227 224 215 217 223 223 231 227 222 217
349 349 348 347 348 347 347 347 346 342 342 339 336 335 333 333 334 335 335 330 323 321 322 322 318 313 308 299 294 286 275 263 242 241 238 226 227 223 223 217 219 220 221 225 226 223 214
351 352 350 350 353 352 353 349 344 345 343 338 336 336 336 335 336 337 334 330 326 326 329 326 322 318 310 306 299 291 281 267 249 234 234 234 223 220 221 218 218 225 217 216 226 225 214
354 353 353 351 354 356 351 346 342 340 342 341 338 337 337 337 338 339 336 332 330 331 334 330 328 321 317 312 306 296 291 292 265 239 230 230 219 218 218 216 217 220 217 215 220 223 219
355 357 357 357 356 352 346 341 338 339 339 339 339 338 339 341 341 341 337 335 334 337 340 335 333 323 314 311 314 305 284 303 275 237 230 225 211 218 215 214 215 216 218 212 216 221 223
1 360 359 356 352 350 345 343 343 342 343 342 341 341 344 344 343 341 339 336 339 342 340 341 341 334 336 325 320 313 284 289 295 222 227 225 212 211 212 215 215 221 220 211 213 216 222
5 1 358 356 352 347 345 344 345 346 346 344 344 343 348 346 343 343 340 342 345 347 346 350 346 346 332 330 319 313 287 285 289 240 227 229 213 198 206 206 214 217 221 218 219 217 224
5 1 358 354 346 345 344 342 342 343 344 344 345 346 349 348 345 344 343 345 350 349 353 356 351 341 343 339 343 325 290 264 277 271 214 220 209 200 203 208 212 218 220 220 222 224 227
3 359 355 348 346 346 344 344 344 345 344 346 347 349 349 348 347 346 344 349 352 352 356 356 355 351 342 352 331 331 297 250 270 252 228 218 205 201 198 202 207 218 219 223 224 225 231
360 354 351 351 348 348 345 344 342 344 346 347 348 350 349 347 349 345 346 353 352 355 359 358 1 347 338 342 335 335 326 244 242 270 240 208 198 207 211 196 203 211 217 219 223 229 227
348 352 352 350 347 347 345 341 340 343 346 347 348 349 351 349 347 347 350 353 354 359 2 1 357 354 355 353 342 334 339 248 310 302 263 204 200 201 200 198 200 189 192 214 218 221 223
350 348 346 344 343 346 345 343 343 345 345 346 348 350 350 350 347 348 352 353 356 1 2 2 6 7 7 2 0 347 359 264 350 15 251 188 194 189 200 203 208 208 196 194 209 214 218
347 344 342 340 340 342 343 344 346 346 346 347 350 352 351 349 348 350 353 354 357 360 2 8 7 15 12 5 9 4 18 351 9 9 193 191 181 178 189 202 207 205 202 179 206 203 211
342 341 341 339 340 342 343 346 345 345 345 347 351 353 351 350 349 352 352 354 359 0 1 6 11 17 18 16 5 14 41 1 6 13 125 207 201 169 172 201 206 200 201 192 186 212 223
340 341 340 341 342 343 343 345 347 344 345 347 349 352 351 352 349 349 354 356 359 360 1 5 13 15 19 15 14 24 36 17 7 30 39 191 211 193 182 188 205 212 211 212 223 222 223
341 341 340 342 341 343 344 347 346 345 345 347 348 351 351 351 348 348 353 359 359 359 1 4 11 17 20 20 18 28 32 11 356 22 41 81 209 205 178 183 191 197 199 199 194 209 211
340 341 340 339 340 341 345 348 346 346 347 348 350 350 351 351 348 349 354 359 0 2 359 4 9 12 18 19 23 25 23 19 1 15 39 50 43 202 195 178 181 189 189 185 187 196 191
341 341 340 340 342 341 342 345 345 345 346 349 351 350 350 353 348 349 355 359 359 1 360 359 5 15 4 8 18 22 23 7 359 349 18 31 18 195 202 185 180 186 199 208 200 200 188
342 341 339 340 342 341 343 344 344 344 345 349 349 352 349 354 348 350 354 357 359 0 0 358 358 6 16 3 3 24 22 12 356 356 341 14 37 191 203 205 195 187 194 212 216 215 223
341 339 339 341 341 343 343 344 344 345 344 347 350 352 350 351 349 349 352 355 358 359 359 1 358 358 4 15 1 9 14 21 12 7 334 351 26 66 213 221 204 203 170 190 205 204 215
340 339 340 341 342 344 345 345 345 345 347 346 349 351 351 348 348 347 349 355 357 355 358 360 0 357 359 358 5 1 348 9 17 11 357 321 343 106 99 238 218 199 191 178 193 201 213
340 337 339 341 342 344 345 345 344 345 347 346 348 350 349 347 349 347 349 353 353 354 354 355 358 1 355 354 348 357 5 341 351 2 11 331 283 262 244 198 217 229 212 191 197 209 207
339 336 339 340 342 344 345 345 346 345 347 346 347 348 350 348 347 346 350 350 350 350 353 352 353 355 357 357 350 349 347 353 347 341 0 13 305 238 236 230 212 222 231 233 224 211 213
336 336 337 339 340 342 344 345 344 344 346 345 344 347 348 346 343 343 348 349 347 347 349 350 348 349 354 359 354 342 337 343 350 346 338 350 354 275 247 232 210 214 216 225 233 221 216
336 336 339 339 340 342 342 345 343 343 344 346 344 346 346 342 340 344 348 346 346 344 345 347 345 345 349 354 354 353 349 342 339 340 337 324 334 342 275 248 248 250 238 228 227 227 227
335 336 338 340 339 340 341 343 341 342 344 345 343 343 341 340 339 341 342 342 343 341 342 342 344 343 342 348 352 355 352 344 331 325 334 322 297 293 288 270 254 249 246 234 232 234 235
335 336 339 339 338 338 340 340 340 342 343 345 341 339 338 339 338 340 339 340 340 339 339 340 341 340 342 341 345 351 353 349 342 322 310 304 303 273 274 279 273 258 254 252 252 249 239
335 337 338 338 336 335 339 339 339 341 343 344 339 336 338 340 339 338 339 336 338 337 337 336 337 336 339 341 340 341 345 344 339 331 313 294 289 282 262 259 264 268 266 259 253 254 247